Time,TemperatureF,DewpointF,PressureIn,WindDirection,WindDirectionDegrees,WindSpeedMPH,WindSpeedGustMPH,Humidity,HourlyPrecipIn,Conditions,Clouds,dailyrainin,SoftwareType,DateUTC
2013-05-25 00:00:00,77.0,72.1,30.12,ENE,67,3.0,9.0,85,0.00,,,0.00,Weather View 32 v70,2013-05-25 04:00:00,
2013-05-25 00:01:00,77.0,72.1,30.12,NNE,22,3.0,9.0,85,0.00,,,0.00,Weather View 32 v70,2013-05-25 04:01:00,
2013-05-25 00:06:00,77.0,72.5,30.12,NE,45,4.0,9.0,86,0.00,,,0.00,Weather View 32 v70,2013-05-25 04:06:00,
2013-05-25 00:11:00,77.0,72.8,30.12,ENE,67,6.0,9.0,87,0.00,,,0.00,Weather View 32 v70,2013-05-25 04:11:00,
2013-05-25 00:16:00,77.0,72.8,30.13,NE,45,3.0,9.0,87,0.00,,,0.00,Weather View 32 v70,2013-05-25 04:16:00,
2013-05-25 00:21:00,77.0,72.1,30.13,NNE,22,5.0,10.0,85,0.00,,,0.00,Weather View 32 v70,2013-05-25 04:21:00,
2013-05-25 00:26:00,77.0,72.1,30.13,NE,45,8.0,10.0,85,0.00,,,0.00,Weather View 32 v70,2013-05-25 04:26:00,
2013-05-25 00:31:00,77.0,71.4,30.13,NE,45,6.0,10.0,83,0.00,,,0.00,Weather View 32 v70,2013-05-25 04:31:00,
2013-05-25 00:36:00,77.0,71.1,30.14,NE,45,5.0,11.0,82,0.00,,,0.00,Weather View 32 v70,2013-05-25 04:36:00,
2013-05-25 00:41:00,77.0,71.4,30.14,ENE,67,4.0,11.0,83,0.00,,,0.00,Weather View 32 v70,2013-05-25 04:41:00,
2013-05-25 00:46:00,77.0,71.1,30.14,NE,45,6.0,11.0,82,0.00,,,0.00,Weather View 32 v70,2013-05-25 04:46:00,
2013-05-25 00:51:00,77.0,70.7,30.14,NE,45,8.0,11.0,81,0.00,,,0.00,Weather View 32 v70,2013-05-25 04:51:00,
2013-05-25 00:56:00,77.0,70.7,30.13,ENE,67,4.0,12.0,81,0.00,,,0.00,Weather View 32 v70,2013-05-25 04:56:00,
2013-05-25 01:01:00,77.0,70.7,30.13,ENE,67,7.0,12.0,81,0.00,,,0.00,Weather View 32 v70,2013-05-25 05:01:00,
2013-05-25 01:06:00,77.0,70.3,30.12,ESE,112,5.0,13.0,80,0.00,,,0.00,Weather View 32 v70,2013-05-25 05:06:00,
2013-05-25 01:11:00,77.0,70.3,30.12,ENE,67,5.0,13.0,80,0.00,,,0.00,Weather View 32 v70,2013-05-25 05:11:00,
2013-05-25 01:16:00,77.0,70.3,30.13,ENE,67,6.0,13.0,80,0.00,,,0.00,Weather View 32 v70,2013-05-25 05:16:00,
2013-05-25 01:21:00,77.0,70.3,30.13,ENE,67,6.0,13.0,80,0.00,,,0.00,Weather View 32 v70,2013-05-25 05:21:00,
2013-05-25 01:29:00,78.0,70.6,30.12,ENE,67,10.0,14.0,78,0.00,,,0.00,Weather View 32 v70,2013-05-25 05:29:00,
2013-05-25 01:34:00,78.0,70.6,30.12,ENE,67,7.0,15.0,78,0.00,,,0.00,Weather View 32 v70,2013-05-25 05:34:00,
2013-05-25 01:39:00,78.0,70.6,30.12,ESE,112,5.0,15.0,78,0.00,,,0.00,Weather View 32 v70,2013-05-25 05:39:00,
2013-05-25 01:44:00,78.0,70.6,30.12,East,90,7.0,15.0,78,0.00,,,0.00,Weather View 32 v70,2013-05-25 05:44:00,
2013-05-25 01:49:00,77.0,69.2,30.12,NE,45,10.0,15.0,77,0.00,,,0.00,Weather View 32 v70,2013-05-25 05:49:00,
2013-05-25 01:54:00,77.0,68.8,30.12,ENE,67,9.0,15.0,76,0.00,,,0.00,Weather View 32 v70,2013-05-25 05:54:00,
2013-05-25 01:59:00,77.0,68.8,30.12,ENE,67,11.0,15.0,76,0.00,,,0.00,Weather View 32 v70,2013-05-25 05:59:00,
2013-05-25 02:04:00,77.0,68.8,30.12,NE,45,7.0,15.0,76,0.00,,,0.00,Weather View 32 v70,2013-05-25 06:04:00,
2013-05-25 02:09:00,77.0,68.8,30.12,North,360,2.0,15.0,76,0.00,,,0.00,Weather View 32 v70,2013-05-25 06:09:00,
2013-05-25 02:14:00,77.0,68.8,30.12,NNE,22,4.0,15.0,76,0.00,,,0.00,Weather View 32 v70,2013-05-25 06:14:00,
2013-05-25 02:19:00,77.0,68.8,30.12,East,90,9.0,15.0,76,0.00,,,0.00,Weather View 32 v70,2013-05-25 06:19:00,
2013-05-25 02:24:00,77.0,68.8,30.12,NNE,22,4.0,15.0,76,0.00,,,0.00,Weather View 32 v70,2013-05-25 06:24:00,
2013-05-25 02:29:00,77.0,68.8,30.12,NE,45,5.0,15.0,76,0.00,,,0.00,Weather View 32 v70,2013-05-25 06:29:00,
2013-05-25 02:34:00,77.0,69.2,30.11,NE,45,4.0,13.0,77,0.00,,,0.00,Weather View 32 v70,2013-05-25 06:34:00,
2013-05-25 02:39:00,77.0,68.8,30.11,ENE,67,5.0,13.0,76,0.00,,,0.00,Weather View 32 v70,2013-05-25 06:39:00,
2013-05-25 02:44:00,77.0,68.8,30.11,ENE,67,6.0,13.0,76,0.00,,,0.00,Weather View 32 v70,2013-05-25 06:44:00,
2013-05-25 02:49:00,77.0,69.2,30.11,NE,45,5.0,13.0,77,0.00,,,0.00,Weather View 32 v70,2013-05-25 06:49:00,
2013-05-25 02:54:00,77.0,68.8,30.11,NE,45,9.0,14.0,76,0.00,,,0.00,Weather View 32 v70,2013-05-25 06:54:00,
2013-05-25 02:59:00,77.0,68.8,30.11,North,360,1.0,14.0,76,0.00,,,0.00,Weather View 32 v70,2013-05-25 06:59:00,
2013-05-25 03:04:00,77.0,68.4,30.12,East,90,5.0,14.0,75,0.00,,,0.00,Weather View 32 v70,2013-05-25 07:04:00,
2013-05-25 03:09:00,77.0,68.4,30.12,NE,45,6.0,14.0,75,0.00,,,0.00,Weather View 32 v70,2013-05-25 07:09:00,
2013-05-25 03:14:00,77.0,68.4,30.11,ENE,67,7.0,14.0,75,0.00,,,0.00,Weather View 32 v70,2013-05-25 07:14:00,
2013-05-25 03:19:00,77.0,68.4,30.11,ENE,67,6.0,14.0,75,0.00,,,0.00,Weather View 32 v70,2013-05-25 07:19:00,
2013-05-25 03:24:00,77.0,68.0,30.11,ENE,67,8.0,14.0,74,0.00,,,0.00,Weather View 32 v70,2013-05-25 07:24:00,
2013-05-25 03:29:00,77.0,68.0,30.11,ENE,67,9.0,14.0,74,0.00,,,0.00,Weather View 32 v70,2013-05-25 07:29:00,
2013-05-25 03:34:00,77.0,68.0,30.11,NE,45,7.0,14.0,74,0.00,,,0.00,Weather View 32 v70,2013-05-25 07:34:00,
2013-05-25 03:39:00,77.0,68.0,30.11,ENE,67,10.0,14.0,74,0.00,,,0.00,Weather View 32 v70,2013-05-25 07:39:00,
2013-05-25 03:44:00,76.0,66.3,30.11,ENE,67,10.0,14.0,72,0.00,,,0.00,Weather View 32 v70,2013-05-25 07:44:00,
2013-05-25 03:49:00,77.0,67.2,30.11,East,90,4.0,14.0,72,0.00,,,0.00,Weather View 32 v70,2013-05-25 07:49:00,
2013-05-25 03:54:00,77.0,66.4,30.10,ENE,67,8.0,14.0,70,0.00,,,0.00,Weather View 32 v70,2013-05-25 07:54:00,
2013-05-25 03:59:00,77.0,66.4,30.10,ENE,67,7.0,14.0,70,0.00,,,0.00,Weather View 32 v70,2013-05-25 07:59:00,
2013-05-25 04:04:00,77.0,65.6,30.10,ENE,67,6.0,13.0,68,0.00,,,0.00,Weather View 32 v70,2013-05-25 08:04:00,
2013-05-25 04:09:00,77.0,66.0,30.10,NE,45,7.0,13.0,69,0.00,,,0.00,Weather View 32 v70,2013-05-25 08:09:00,
2013-05-25 04:14:00,77.0,66.0,30.11,ENE,67,3.0,13.0,69,0.00,,,0.00,Weather View 32 v70,2013-05-25 08:14:00,
2013-05-25 04:19:00,76.0,64.2,30.11,NE,45,10.0,13.0,67,0.00,,,0.00,Weather View 32 v70,2013-05-25 08:19:00,
2013-05-25 04:24:00,77.0,65.2,30.11,ENE,67,6.0,13.0,67,0.00,,,0.00,Weather View 32 v70,2013-05-25 08:24:00,
2013-05-25 04:29:00,76.0,64.2,30.11,ENE,67,6.0,13.0,67,0.00,,,0.00,Weather View 32 v70,2013-05-25 08:29:00,
2013-05-25 04:34:00,76.0,64.2,30.11,ENE,67,5.0,13.0,67,0.00,,,0.00,Weather View 32 v70,2013-05-25 08:34:00,
2013-05-25 04:39:00,76.0,64.2,30.11,ENE,67,6.0,13.0,67,0.00,,,0.00,Weather View 32 v70,2013-05-25 08:39:00,
2013-05-25 04:44:00,76.0,64.6,30.11,ENE,67,3.0,13.0,68,0.00,,,0.00,Weather View 32 v70,2013-05-25 08:44:00,
2013-05-25 04:49:00,76.0,64.2,30.11,NE,45,8.0,12.0,67,0.00,,,0.00,Weather View 32 v70,2013-05-25 08:49:00,
2013-05-25 04:54:00,76.0,64.2,30.11,ENE,67,7.0,12.0,67,0.00,,,0.00,Weather View 32 v70,2013-05-25 08:54:00,
2013-05-25 04:59:00,76.0,64.2,30.11,NE,45,5.0,12.0,67,0.00,,,0.00,Weather View 32 v70,2013-05-25 08:59:00,
2013-05-25 05:04:00,76.0,64.2,30.12,NE,45,5.0,12.0,67,0.00,,,0.00,Weather View 32 v70,2013-05-25 09:04:00,
2013-05-25 05:09:00,76.0,64.2,30.12,ENE,67,8.0,12.0,67,0.00,,,0.00,Weather View 32 v70,2013-05-25 09:09:00,
2013-05-25 05:14:00,76.0,64.2,30.12,NE,45,1.0,12.0,67,0.00,,,0.00,Weather View 32 v70,2013-05-25 09:14:00,
2013-05-25 05:19:00,76.0,64.6,30.12,NE,45,2.0,11.0,68,0.00,,,0.00,Weather View 32 v70,2013-05-25 09:19:00,
2013-05-25 05:24:00,76.0,64.2,30.12,ENE,67,10.0,11.0,67,0.00,,,0.00,Weather View 32 v70,2013-05-25 09:24:00,
2013-05-25 05:29:00,76.0,63.8,30.12,NNE,22,3.0,11.0,66,0.00,,,0.00,Weather View 32 v70,2013-05-25 09:29:00,
2013-05-25 05:34:00,76.0,62.9,30.11,ENE,67,8.0,11.0,64,0.00,,,0.00,Weather View 32 v70,2013-05-25 09:34:00,
2013-05-25 05:39:00,76.0,62.9,30.11,NE,45,6.0,11.0,64,0.00,,,0.00,Weather View 32 v70,2013-05-25 09:39:00,
2013-05-25 05:44:00,76.0,62.9,30.12,ENE,67,6.0,11.0,64,0.00,,,0.00,Weather View 32 v70,2013-05-25 09:44:00,
2013-05-25 05:49:00,76.0,61.1,30.12,NE,45,10.0,13.0,60,0.00,,,0.00,Weather View 32 v70,2013-05-25 09:49:00,
2013-05-25 05:54:00,77.0,62.0,30.11,East,90,8.0,13.0,60,0.00,,,0.00,Weather View 32 v70,2013-05-25 09:54:00,
2013-05-25 05:59:00,76.0,61.1,30.11,NE,45,9.0,13.0,60,0.00,,,0.00,Weather View 32 v70,2013-05-25 09:59:00,
2013-05-25 06:04:00,76.0,62.0,30.12,NE,45,5.0,13.0,62,0.00,,,0.00,Weather View 32 v70,2013-05-25 10:04:00,
2013-05-25 06:09:00,76.0,62.4,30.12,ENE,67,6.0,13.0,63,0.00,,,0.00,Weather View 32 v70,2013-05-25 10:09:00,
2013-05-25 06:14:00,76.0,61.1,30.13,NE,45,11.0,15.0,60,0.00,,,0.00,Weather View 32 v70,2013-05-25 10:14:00,
2013-05-25 06:19:00,76.0,61.1,30.13,NE,45,6.0,15.0,60,0.00,,,0.00,Weather View 32 v70,2013-05-25 10:19:00,
2013-05-25 06:24:00,77.0,62.0,30.12,NE,45,5.0,15.0,60,0.00,,,0.00,Weather View 32 v70,2013-05-25 10:24:00,
2013-05-25 06:35:00,77.0,62.0,30.12,NE,45,4.0,15.0,60,0.00,,,0.00,Weather View 32 v70,2013-05-25 10:35:00,
2013-05-25 06:40:00,77.0,62.0,30.12,ENE,67,13.0,15.0,60,0.00,,,0.00,Weather View 32 v70,2013-05-25 10:40:00,
2013-05-25 06:45:00,77.0,61.0,30.13,NE,45,8.0,15.0,58,0.00,,,0.00,Weather View 32 v70,2013-05-25 10:45:00,
2013-05-25 06:50:00,77.0,61.5,30.13,NE,45,3.0,15.0,59,0.00,,,0.00,Weather View 32 v70,2013-05-25 10:50:00,
2013-05-25 06:55:00,77.0,61.0,30.14,NE,45,8.0,15.0,58,0.00,,,0.00,Weather View 32 v70,2013-05-25 10:55:00,
2013-05-25 07:00:00,77.0,60.0,30.14,East,90,4.0,15.0,56,0.00,,,0.00,Weather View 32 v70,2013-05-25 11:00:00,
2013-05-25 07:05:00,78.0,61.0,30.14,NE,45,7.0,15.0,56,0.00,,,0.00,Weather View 32 v70,2013-05-25 11:05:00,
2013-05-25 07:10:00,78.0,61.5,30.14,ENE,67,10.0,15.0,57,0.00,,,0.00,Weather View 32 v70,2013-05-25 11:10:00,
2013-05-25 07:15:00,78.0,61.5,30.15,ENE,67,7.0,15.0,57,0.00,,,0.00,Weather View 32 v70,2013-05-25 11:15:00,
2013-05-25 07:20:00,78.0,60.5,30.15,ESE,112,5.0,15.0,55,0.00,,,0.00,Weather View 32 v70,2013-05-25 11:20:00,
2013-05-25 07:25:00,78.0,60.5,30.16,NE,45,10.0,16.0,55,0.00,,,0.00,Weather View 32 v70,2013-05-25 11:25:00,
2013-05-25 07:30:00,78.0,60.0,30.16,East,90,8.0,16.0,54,0.00,,,0.00,Weather View 32 v70,2013-05-25 11:30:00,
2013-05-25 07:35:00,79.0,60.9,30.15,North,360,1.0,16.0,54,0.00,,,0.00,Weather View 32 v70,2013-05-25 11:35:00,
2013-05-25 07:40:00,79.0,60.3,30.15,East,90,6.0,16.0,53,0.00,,,0.00,Weather View 32 v70,2013-05-25 11:40:00,
2013-05-25 07:45:00,79.0,59.3,30.16,NNE,22,8.0,16.0,51,0.00,,,0.00,Weather View 32 v70,2013-05-25 11:45:00,
2013-05-25 07:50:00,79.0,59.3,30.16,ENE,67,8.0,16.0,51,0.00,,,0.00,Weather View 32 v70,2013-05-25 11:50:00,
2013-05-25 07:55:00,79.0,59.8,30.16,NE,45,7.0,16.0,52,0.00,,,0.00,Weather View 32 v70,2013-05-25 11:55:00,
2013-05-25 08:00:00,79.0,59.3,30.16,North,360,2.0,16.0,51,0.00,,,0.00,Weather View 32 v70,2013-05-25 12:00:00,
2013-05-25 08:05:00,80.0,60.2,30.17,East,90,12.0,16.0,51,0.00,,,0.00,Weather View 32 v70,2013-05-25 12:05:00,
2013-05-25 08:10:00,80.0,60.2,30.17,East,90,11.0,16.0,51,0.00,,,0.00,Weather View 32 v70,2013-05-25 12:10:00,
2013-05-25 08:15:00,80.0,60.2,30.17,SE,135,3.0,16.0,51,0.00,,,0.00,Weather View 32 v70,2013-05-25 12:15:00,
2013-05-25 08:20:00,80.0,60.2,30.17,NE,45,8.0,16.0,51,0.00,,,0.00,Weather View 32 v70,2013-05-25 12:20:00,
2013-05-25 08:25:00,80.0,59.1,30.17,East,90,6.0,16.0,49,0.00,,,0.00,Weather View 32 v70,2013-05-25 12:25:00,
2013-05-25 08:30:00,80.0,59.1,30.17,NE,45,10.0,16.0,49,0.00,,,0.00,Weather View 32 v70,2013-05-25 12:30:00,
2013-05-25 08:35:00,80.0,59.1,30.18,East,90,8.0,16.0,49,0.00,,,0.00,Weather View 32 v70,2013-05-25 12:35:00,
2013-05-25 08:40:00,80.0,59.6,30.18,NE,45,8.0,16.0,50,0.00,,,0.00,Weather View 32 v70,2013-05-25 12:40:00,
2013-05-25 08:45:00,81.0,60.0,30.18,ENE,67,11.0,16.0,49,0.00,,,0.00,Weather View 32 v70,2013-05-25 12:45:00,
2013-05-25 08:50:00,81.0,60.5,30.18,ENE,67,7.0,16.0,50,0.00,,,0.00,Weather View 32 v70,2013-05-25 12:50:00,
2013-05-25 08:55:00,80.0,60.2,30.18,NE,45,10.0,16.0,51,0.00,,,0.00,Weather View 32 v70,2013-05-25 12:55:00,
2013-05-25 09:00:00,80.0,60.2,30.18,East,90,4.0,20.0,51,0.00,,,0.00,Weather View 32 v70,2013-05-25 13:00:00,
2013-05-25 09:05:00,80.0,60.7,30.19,ENE,67,6.0,20.0,52,0.00,,,0.00,Weather View 32 v70,2013-05-25 13:05:00,
2013-05-25 09:10:00,81.0,61.1,30.19,East,90,11.0,20.0,51,0.00,,,0.00,Weather View 32 v70,2013-05-25 13:10:00,
2013-05-25 09:15:00,81.0,60.0,30.19,East,90,4.0,20.0,49,0.00,,,0.00,Weather View 32 v70,2013-05-25 13:15:00,
2013-05-25 09:20:00,81.0,60.0,30.19,NE,45,6.0,20.0,49,0.00,,,0.00,Weather View 32 v70,2013-05-25 13:20:00,
2013-05-25 09:25:00,81.0,58.2,30.19,ENE,67,3.0,20.0,46,0.00,,,0.00,Weather View 32 v70,2013-05-25 13:25:00,
2013-05-25 09:30:00,81.0,58.8,30.19,East,90,10.0,20.0,47,0.00,,,0.00,Weather View 32 v70,2013-05-25 13:30:00,
2013-05-25 09:35:00,81.0,58.8,30.20,NE,45,9.0,20.0,47,0.00,,,0.00,Weather View 32 v70,2013-05-25 13:35:00,
2013-05-25 09:40:00,81.0,58.8,30.20,NE,45,5.0,20.0,47,0.00,,,0.00,Weather View 32 v70,2013-05-25 13:40:00,
2013-05-25 09:45:00,81.0,60.0,30.20,NNE,22,6.0,20.0,49,0.00,,,0.00,Weather View 32 v70,2013-05-25 13:45:00,
2013-05-25 09:50:00,82.0,59.1,30.20,ENE,67,15.0,20.0,46,0.00,,,0.00,Weather View 32 v70,2013-05-25 13:50:00,
2013-05-25 09:55:00,82.0,59.1,30.20,ENE,67,15.0,20.0,46,0.00,,,0.00,Weather View 32 v70,2013-05-25 13:55:00,
2013-05-25 10:00:00,82.0,59.7,30.20,ESE,112,6.0,20.0,47,0.00,,,0.00,Weather View 32 v70,2013-05-25 14:00:00,
2013-05-25 10:05:00,82.0,57.9,30.20,NE,45,10.0,17.0,44,0.00,,,0.00,Weather View 32 v70,2013-05-25 14:05:00,
2013-05-25 10:10:00,81.0,57.6,30.20,ENE,67,10.0,17.0,45,0.00,,,0.00,Weather View 32 v70,2013-05-25 14:10:00,
2013-05-25 10:15:00,81.0,58.2,30.21,NE,45,4.0,19.0,46,0.00,,,0.00,Weather View 32 v70,2013-05-25 14:15:00,
2013-05-25 10:20:00,81.0,58.2,30.21,ENE,67,10.0,19.0,46,0.00,,,0.00,Weather View 32 v70,2013-05-25 14:20:00,
2013-05-25 10:25:00,81.0,58.8,30.21,ENE,67,0.0,19.0,47,0.00,,,0.00,Weather View 32 v70,2013-05-25 14:25:00,
2013-05-25 10:30:00,82.0,59.1,30.21,NNE,22,5.0,19.0,46,0.00,,,0.00,Weather View 32 v70,2013-05-25 14:30:00,
2013-05-25 10:35:00,82.0,58.5,30.21,ENE,67,12.0,19.0,45,0.00,,,0.00,Weather View 32 v70,2013-05-25 14:35:00,
2013-05-25 10:40:00,82.0,56.6,30.21,ENE,67,11.0,19.0,42,0.00,,,0.00,Weather View 32 v70,2013-05-25 14:40:00,
2013-05-25 10:45:00,81.0,58.2,30.21,ENE,67,13.0,19.0,46,0.00,,,0.00,Weather View 32 v70,2013-05-25 14:45:00,
2013-05-25 10:50:00,82.0,59.1,30.21,ENE,67,6.0,19.0,46,0.00,,,0.00,Weather View 32 v70,2013-05-25 14:50:00,
2013-05-25 10:55:00,82.0,57.9,30.21,ENE,67,13.0,19.0,44,0.00,,,0.00,Weather View 32 v70,2013-05-25 14:55:00,
2013-05-25 11:00:00,82.0,59.1,30.21,North,360,14.0,19.0,46,0.00,,,0.00,Weather View 32 v70,2013-05-25 15:00:00,
2013-05-25 11:05:00,82.0,59.1,30.21,NE,45,7.0,19.0,46,0.00,,,0.00,Weather View 32 v70,2013-05-25 15:05:00,
2013-05-25 11:10:00,82.0,59.1,30.21,ENE,67,12.0,19.0,46,0.00,,,0.00,Weather View 32 v70,2013-05-25 15:10:00,
2013-05-25 11:15:00,82.0,60.3,30.21,East,90,5.0,19.0,48,0.00,,,0.00,Weather View 32 v70,2013-05-25 15:15:00,
2013-05-25 11:20:00,82.0,59.1,30.21,ENE,67,6.0,19.0,46,0.00,,,0.00,Weather View 32 v70,2013-05-25 15:20:00,
2013-05-25 11:25:00,81.0,58.8,30.21,ENE,67,16.0,20.0,47,0.00,,,0.00,Weather View 32 v70,2013-05-25 15:25:00,
2013-05-25 11:30:00,81.0,58.2,30.21,SW,225,4.0,20.0,46,0.00,,,0.00,Weather View 32 v70,2013-05-25 15:30:00,
2013-05-25 11:39:00,83.0,60.0,30.22,NNW,337,6.0,20.0,46,0.00,,,0.00,Weather View 32 v70,2013-05-25 15:39:00,
2013-05-25 11:44:00,82.0,59.7,30.21,ENE,67,15.0,20.0,47,0.00,,,0.00,Weather View 32 v70,2013-05-25 15:44:00,
2013-05-25 11:49:00,82.0,59.7,30.21,NE,45,8.0,20.0,47,0.00,,,0.00,Weather View 32 v70,2013-05-25 15:49:00,
2013-05-25 11:54:00,81.0,59.4,30.22,East,90,9.0,20.0,48,0.00,,,0.00,Weather View 32 v70,2013-05-25 15:54:00,
2013-05-25 11:59:00,82.0,59.7,30.22,NNE,22,5.0,20.0,47,0.00,,,0.00,Weather View 32 v70,2013-05-25 15:59:00,
2013-05-25 12:04:00,81.0,61.7,30.21,East,90,11.0,20.0,52,0.00,,,0.00,Weather View 32 v70,2013-05-25 16:04:00,
2013-05-25 12:09:00,81.0,66.2,30.21,NE,45,15.0,20.0,61,0.00,,,0.00,Weather View 32 v70,2013-05-25 16:09:00,
2013-05-25 12:14:00,81.0,66.2,30.22,ENE,67,18.0,20.0,61,0.00,,,0.00,Weather View 32 v70,2013-05-25 16:14:00,
2013-05-25 12:19:00,80.0,65.8,30.22,NE,45,14.0,21.0,62,0.00,,,0.00,Weather View 32 v70,2013-05-25 16:19:00,
2013-05-25 12:24:00,81.0,65.8,30.22,NE,45,8.0,21.0,60,0.00,,,0.00,Weather View 32 v70,2013-05-25 16:24:00,
2013-05-25 12:29:00,81.0,66.2,30.22,NNE,22,12.0,21.0,61,0.00,,,0.00,Weather View 32 v70,2013-05-25 16:29:00,
2013-05-25 12:34:00,81.0,65.3,30.22,ENE,67,10.0,22.0,59,0.00,,,0.00,Weather View 32 v70,2013-05-25 16:34:00,
2013-05-25 12:39:00,80.0,65.3,30.22,SSE,157,5.0,22.0,61,0.00,,,0.00,Weather View 32 v70,2013-05-25 16:39:00,
2013-05-25 12:44:00,81.0,65.3,30.22,East,90,10.0,22.0,59,0.00,,,0.00,Weather View 32 v70,2013-05-25 16:44:00,
2013-05-25 12:49:00,81.0,65.3,30.22,NNE,22,10.0,22.0,59,0.00,,,0.00,Weather View 32 v70,2013-05-25 16:49:00,
2013-05-25 12:54:00,81.0,65.8,30.23,ENE,67,15.0,22.0,60,0.00,,,0.00,Weather View 32 v70,2013-05-25 16:54:00,
2013-05-25 12:59:00,80.0,65.3,30.23,ENE,67,16.0,22.0,61,0.00,,,0.00,Weather View 32 v70,2013-05-25 16:59:00,
2013-05-25 13:04:00,80.0,65.8,30.22,NE,45,10.0,22.0,62,0.00,,,0.00,Weather View 32 v70,2013-05-25 17:04:00,
2013-05-25 13:09:00,80.0,65.3,30.22,ENE,67,15.0,23.0,61,0.00,,,0.00,Weather View 32 v70,2013-05-25 17:09:00,
2013-05-25 13:14:00,81.0,65.8,30.23,ENE,67,6.0,23.0,60,0.00,,,0.00,Weather View 32 v70,2013-05-25 17:14:00,
2013-05-25 13:19:00,80.0,65.3,30.23,ENE,67,16.0,23.0,61,0.00,,,0.00,Weather View 32 v70,2013-05-25 17:19:00,
2013-05-25 13:24:00,80.0,65.8,30.23,ENE,67,8.0,23.0,62,0.00,,,0.00,Weather View 32 v70,2013-05-25 17:24:00,
2013-05-25 13:29:00,80.0,64.3,30.23,ESE,112,18.0,23.0,59,0.00,,,0.00,Weather View 32 v70,2013-05-25 17:29:00,
2013-05-25 13:34:00,80.0,64.8,30.22,ENE,67,16.0,23.0,60,0.00,,,0.00,Weather View 32 v70,2013-05-25 17:34:00,
2013-05-25 13:39:00,80.0,65.3,30.22,ENE,67,19.0,23.0,61,0.00,,,0.00,Weather View 32 v70,2013-05-25 17:39:00,
2013-05-25 13:44:00,80.0,64.8,30.22,NE,45,10.0,26.0,60,0.00,,,0.00,Weather View 32 v70,2013-05-25 17:44:00,
2013-05-25 13:49:00,80.0,65.3,30.22,NNE,22,11.0,26.0,61,0.00,,,0.00,Weather View 32 v70,2013-05-25 17:49:00,
2013-05-25 13:54:00,80.0,65.3,30.22,NE,45,7.0,26.0,61,0.00,,,0.00,Weather View 32 v70,2013-05-25 17:54:00,
2013-05-25 13:59:00,80.0,64.8,30.22,East,90,16.0,26.0,60,0.00,,,0.00,Weather View 32 v70,2013-05-25 17:59:00,
2013-05-25 14:05:00,79.0,63.9,30.22,ENE,67,21.0,26.0,60,0.00,,,0.00,Weather View 32 v70,2013-05-25 18:05:00,
2013-05-25 14:10:00,79.0,63.9,30.22,ENE,67,8.0,26.0,60,0.00,,,0.00,Weather View 32 v70,2013-05-25 18:10:00,
2013-05-25 14:15:00,80.0,63.8,30.22,ENE,67,16.0,26.0,58,0.00,,,0.00,Weather View 32 v70,2013-05-25 18:15:00,
2013-05-25 14:20:00,80.0,64.3,30.22,NE,45,3.0,26.0,59,0.00,,,0.00,Weather View 32 v70,2013-05-25 18:20:00,
2013-05-25 14:25:00,80.0,63.8,30.22,East,90,11.0,26.0,58,0.00,,,0.00,Weather View 32 v70,2013-05-25 18:25:00,
2013-05-25 14:30:00,80.0,63.8,30.22,ENE,67,11.0,26.0,58,0.00,,,0.00,Weather View 32 v70,2013-05-25 18:30:00,
2013-05-25 14:35:00,80.0,63.8,30.22,NE,45,10.0,26.0,58,0.01,,,0.00,Weather View 32 v70,2013-05-25 18:35:00,
2013-05-25 14:40:00,80.0,63.8,30.22,East,90,9.0,26.0,58,0.00,,,0.00,Weather View 32 v70,2013-05-25 18:40:00,
2013-05-25 14:45:00,80.0,63.3,30.22,North,360,10.0,24.0,57,0.01,,,0.00,Weather View 32 v70,2013-05-25 18:45:00,
2013-05-25 14:50:00,80.0,63.3,30.22,NE,45,10.0,24.0,57,0.00,,,0.00,Weather View 32 v70,2013-05-25 18:50:00,
2013-05-25 14:55:00,80.0,63.8,30.22,East,90,15.0,24.0,58,0.00,,,0.00,Weather View 32 v70,2013-05-25 18:55:00,
2013-05-25 15:00:00,79.0,62.9,30.22,ENE,67,15.0,24.0,58,0.00,,,0.00,Weather View 32 v70,2013-05-25 19:00:00,
2013-05-25 15:05:00,80.0,64.3,30.22,ENE,67,14.0,24.0,59,0.00,,,0.00,Weather View 32 v70,2013-05-25 19:05:00,
2013-05-25 15:10:00,80.0,64.3,30.22,ENE,67,17.0,23.0,59,0.00,,,0.00,Weather View 32 v70,2013-05-25 19:10:00,
2013-05-25 15:15:00,80.0,64.3,30.22,NE,45,10.0,23.0,59,0.00,,,0.00,Weather View 32 v70,2013-05-25 19:15:00,
2013-05-25 15:20:00,80.0,64.3,30.22,ENE,67,16.0,23.0,59,0.00,,,0.00,Weather View 32 v70,2013-05-25 19:20:00,
2013-05-25 15:25:00,80.0,63.8,30.22,NNE,22,6.0,24.0,58,0.00,,,0.00,Weather View 32 v70,2013-05-25 19:25:00,
2013-05-25 15:30:00,80.0,63.3,30.22,North,360,8.0,24.0,57,0.00,,,0.00,Weather View 32 v70,2013-05-25 19:30:00,
2013-05-25 15:35:00,80.0,63.8,30.22,NE,45,17.0,24.0,58,0.00,,,0.00,Weather View 32 v70,2013-05-25 19:35:00,
2013-05-25 15:40:00,80.0,63.8,30.22,NE,45,13.0,24.0,58,0.00,,,0.00,Weather View 32 v70,2013-05-25 19:40:00,
2013-05-25 15:45:00,79.0,63.4,30.22,ENE,67,11.0,24.0,59,0.00,,,0.00,Weather View 32 v70,2013-05-25 19:45:00,
2013-05-25 15:50:00,80.0,64.3,30.22,NE,45,10.0,24.0,59,0.00,,,0.00,Weather View 32 v70,2013-05-25 19:50:00,
2013-05-25 15:55:00,79.0,62.9,30.22,NE,45,6.0,24.0,58,0.00,,,0.00,Weather View 32 v70,2013-05-25 19:55:00,
2013-05-25 16:00:00,79.0,62.9,30.22,ESE,112,5.0,24.0,58,0.00,,,0.00,Weather View 32 v70,2013-05-25 20:00:00,
2013-05-25 16:05:00,79.0,62.9,30.21,ENE,67,11.0,24.0,58,0.00,,,0.00,Weather View 32 v70,2013-05-25 20:05:00,
2013-05-25 16:10:00,80.0,64.3,30.21,NE,45,9.0,24.0,59,0.00,,,0.00,Weather View 32 v70,2013-05-25 20:10:00,
2013-05-25 16:15:00,80.0,63.3,30.22,ENE,67,15.0,24.0,57,0.00,,,0.00,Weather View 32 v70,2013-05-25 20:15:00,
2013-05-25 16:20:00,80.0,64.3,30.22,NE,45,11.0,24.0,59,0.00,,,0.00,Weather View 32 v70,2013-05-25 20:20:00,
2013-05-25 16:25:00,79.0,63.4,30.22,NE,45,11.0,23.0,59,0.00,,,0.00,Weather View 32 v70,2013-05-25 20:25:00,
2013-05-25 16:30:00,78.0,63.4,30.22,ENE,67,18.0,23.0,61,0.00,,,0.00,Weather View 32 v70,2013-05-25 20:30:00,
2013-05-25 16:35:00,79.0,62.9,30.22,ENE,67,16.0,23.0,58,0.00,,,0.00,Weather View 32 v70,2013-05-25 20:35:00,
2013-05-25 16:45:00,79.0,62.9,30.20,NE,45,16.0,23.0,58,0.00,,,0.00,Weather View 32 v70,2013-05-25 20:45:00,
2013-05-25 16:50:00,78.0,62.9,30.20,ENE,67,15.0,23.0,60,0.00,,,0.00,Weather View 32 v70,2013-05-25 20:50:00,
2013-05-25 16:55:00,78.0,63.9,30.21,ENE,67,9.0,23.0,62,0.00,,,0.00,Weather View 32 v70,2013-05-25 20:55:00,
2013-05-25 17:00:00,78.0,63.4,30.21,NE,45,8.0,23.0,61,0.00,,,0.00,Weather View 32 v70,2013-05-25 21:00:00,
2013-05-25 17:05:00,78.0,63.4,30.19,ENE,67,8.0,23.0,61,0.00,,,0.00,Weather View 32 v70,2013-05-25 21:05:00,
2013-05-25 17:10:00,79.0,63.4,30.19,NE,45,12.0,23.0,59,0.00,,,0.00,Weather View 32 v70,2013-05-25 21:10:00,
2013-05-25 17:15:00,79.0,63.9,30.19,NE,45,5.0,23.0,60,0.00,,,0.00,Weather View 32 v70,2013-05-25 21:15:00,
2013-05-25 17:20:00,78.0,62.9,30.19,ESE,112,5.0,23.0,60,0.00,,,0.00,Weather View 32 v70,2013-05-25 21:20:00,
2013-05-25 17:25:00,79.0,63.4,30.19,NW,315,4.0,23.0,59,0.00,,,0.00,Weather View 32 v70,2013-05-25 21:25:00,
2013-05-25 17:30:00,79.0,62.9,30.19,NE,45,12.0,23.0,58,0.00,,,0.00,Weather View 32 v70,2013-05-25 21:30:00,
2013-05-25 17:35:00,78.0,62.9,30.19,ENE,67,8.0,23.0,60,0.00,,,0.00,Weather View 32 v70,2013-05-25 21:35:00,
2013-05-25 17:40:00,79.0,63.4,30.19,NE,45,10.0,23.0,59,0.00,,,0.00,Weather View 32 v70,2013-05-25 21:40:00,
2013-05-25 17:45:00,78.0,62.5,30.19,ENE,67,11.0,23.0,59,0.00,,,0.00,Weather View 32 v70,2013-05-25 21:45:00,
2013-05-25 17:50:00,78.0,63.4,30.19,ENE,67,6.0,22.0,61,0.00,,,0.00,Weather View 32 v70,2013-05-25 21:50:00,
2013-05-25 17:55:00,78.0,63.9,30.20,ENE,67,12.0,22.0,62,0.00,,,0.00,Weather View 32 v70,2013-05-25 21:55:00,
2013-05-25 18:00:00,78.0,63.9,30.20,ENE,67,10.0,22.0,62,0.00,,,0.00,Weather View 32 v70,2013-05-25 22:00:00,
2013-05-25 18:06:00,78.0,63.9,30.20,NE,45,7.0,21.0,62,0.00,,,0.00,Weather View 32 v70,2013-05-25 22:06:00,
2013-05-25 18:11:00,78.0,63.4,30.20,ENE,67,11.0,20.0,61,0.00,,,0.00,Weather View 32 v70,2013-05-25 22:11:00,
2013-05-25 18:16:00,77.0,62.9,30.20,NE,45,8.0,20.0,62,0.01,,,0.00,Weather View 32 v70,2013-05-25 22:16:00,
2013-05-25 18:21:00,78.0,62.9,30.20,NE,45,8.0,20.0,60,0.00,,,0.00,Weather View 32 v70,2013-05-25 22:21:00,
2013-05-25 18:26:00,78.0,63.9,30.20,ENE,67,11.0,20.0,62,0.00,,,0.00,Weather View 32 v70,2013-05-25 22:26:00,
2013-05-25 18:31:00,77.0,62.9,30.20,SE,135,4.0,20.0,62,0.00,,,0.00,Weather View 32 v70,2013-05-25 22:31:00,
2013-05-25 18:36:00,77.0,63.8,30.20,NE,45,6.0,20.0,64,0.00,,,0.00,Weather View 32 v70,2013-05-25 22:36:00,
2013-05-25 18:41:00,77.0,63.4,30.20,East,90,6.0,20.0,63,0.00,,,0.00,Weather View 32 v70,2013-05-25 22:41:00,
2013-05-25 18:46:00,77.0,63.8,30.20,NE,45,5.0,20.0,64,0.00,,,0.00,Weather View 32 v70,2013-05-25 22:46:00,
2013-05-25 18:51:00,77.0,63.8,30.20,NE,45,13.0,20.0,64,0.00,,,0.00,Weather View 32 v70,2013-05-25 22:51:00,
2013-05-25 18:56:00,76.0,63.3,30.19,East,90,11.0,20.0,65,0.00,,,0.00,Weather View 32 v70,2013-05-25 22:56:00,
2013-05-25 19:01:00,77.0,63.8,30.19,NE,45,9.0,20.0,64,0.00,,,0.00,Weather View 32 v70,2013-05-25 23:01:00,
2013-05-25 19:06:00,76.0,62.9,30.19,ENE,67,12.0,20.0,64,0.00,,,0.00,Weather View 32 v70,2013-05-25 23:06:00,
2013-05-25 19:11:00,76.0,63.3,30.19,NE,45,9.0,20.0,65,0.00,,,0.00,Weather View 32 v70,2013-05-25 23:11:00,
2013-05-25 19:16:00,76.0,63.3,30.20,ENE,67,10.0,20.0,65,0.00,,,0.00,Weather View 32 v70,2013-05-25 23:16:00,
2013-05-25 19:21:00,76.0,62.9,30.20,ENE,67,11.0,20.0,64,0.00,,,0.00,Weather View 32 v70,2013-05-25 23:21:00,
2013-05-25 19:26:00,76.0,62.9,30.20,ENE,67,15.0,20.0,64,0.00,,,0.00,Weather View 32 v70,2013-05-25 23:26:00,
2013-05-25 19:31:00,76.0,63.8,30.20,NE,45,6.0,20.0,66,0.00,,,0.00,Weather View 32 v70,2013-05-25 23:31:00,
2013-05-25 19:36:00,76.0,63.8,30.20,ENE,67,9.0,20.0,66,0.00,,,0.00,Weather View 32 v70,2013-05-25 23:36:00,
2013-05-25 19:41:00,76.0,62.9,30.20,NE,45,12.0,20.0,64,0.00,,,0.00,Weather View 32 v70,2013-05-25 23:41:00,
2013-05-25 19:46:00,76.0,63.3,30.20,ENE,67,15.0,20.0,65,0.00,,,0.00,Weather View 32 v70,2013-05-25 23:46:00,
2013-05-25 19:51:00,76.0,63.8,30.20,ENE,67,12.0,20.0,66,0.00,,,0.00,Weather View 32 v70,2013-05-25 23:51:00,
2013-05-25 19:56:00,76.0,63.8,30.20,NE,45,19.0,20.0,66,0.00,,,0.00,Weather View 32 v70,2013-05-25 23:56:00,
2013-05-25 20:01:00,75.0,62.4,30.20,ENE,67,16.0,20.0,65,0.00,,,0.00,Weather View 32 v70,2013-05-26 00:01:00,
2013-05-25 20:06:00,75.0,62.0,30.20,ENE,67,10.0,20.0,64,0.00,,,0.00,Weather View 32 v70,2013-05-26 00:06:00,
2013-05-25 20:11:00,75.0,62.8,30.20,NE,45,10.0,20.0,66,0.00,,,0.00,Weather View 32 v70,2013-05-26 00:11:00,
2013-05-25 20:16:00,75.0,62.4,30.20,NE,45,11.0,20.0,65,0.00,,,0.00,Weather View 32 v70,2013-05-26 00:16:00,
2013-05-25 20:21:00,75.0,62.8,30.20,ENE,67,9.0,20.0,66,0.00,,,0.00,Weather View 32 v70,2013-05-26 00:21:00,
2013-05-25 20:26:00,75.0,62.4,30.20,ENE,67,11.0,20.0,65,0.00,,,0.00,Weather View 32 v70,2013-05-26 00:26:00,
2013-05-25 20:31:00,75.0,62.8,30.20,ENE,67,15.0,20.0,66,0.00,,,0.00,Weather View 32 v70,2013-05-26 00:31:00,
2013-05-25 20:36:00,75.0,62.8,30.20,East,90,4.0,20.0,66,0.00,,,0.00,Weather View 32 v70,2013-05-26 00:36:00,
2013-05-25 20:41:00,75.0,62.4,30.20,NE,45,9.0,20.0,65,0.00,,,0.00,Weather View 32 v70,2013-05-26 00:41:00,
2013-05-25 20:46:00,74.0,61.4,30.20,NE,45,9.0,20.0,65,0.00,,,0.00,Weather View 32 v70,2013-05-26 00:46:00,
2013-05-25 20:51:00,75.0,62.0,30.21,ENE,67,9.0,20.0,64,0.00,,,0.00,Weather View 32 v70,2013-05-26 00:51:00,
2013-05-25 20:56:00,74.0,61.4,30.21,ENE,67,10.0,20.0,65,0.00,,,0.00,Weather View 32 v70,2013-05-26 00:56:00,
2013-05-25 21:01:00,75.0,61.5,30.21,ENE,67,9.0,16.0,63,0.00,,,0.00,Weather View 32 v70,2013-05-26 01:01:00,
2013-05-25 21:07:00,74.0,61.0,30.21,NNE,22,5.0,16.0,64,0.00,,,0.00,Weather View 32 v70,2013-05-26 01:07:00,
2013-05-25 21:12:00,75.0,62.0,30.21,NE,45,6.0,16.0,64,0.00,,,0.00,Weather View 32 v70,2013-05-26 01:12:00,
2013-05-25 21:17:00,74.0,61.4,30.21,ENE,67,4.0,16.0,65,0.00,,,0.00,Weather View 32 v70,2013-05-26 01:17:00,
2013-05-25 21:22:00,74.0,60.6,30.22,NE,45,10.0,16.0,63,0.00,,,0.00,Weather View 32 v70,2013-05-26 01:22:00,
2013-05-25 21:27:00,74.0,61.0,30.22,NE,45,10.0,16.0,64,0.00,,,0.00,Weather View 32 v70,2013-05-26 01:27:00,
2013-05-25 21:32:00,74.0,60.1,30.22,ENE,67,10.0,16.0,62,0.00,,,0.00,Weather View 32 v70,2013-05-26 01:32:00,
2013-05-25 21:37:00,74.0,60.6,30.22,ENE,67,10.0,16.0,63,0.00,,,0.00,Weather View 32 v70,2013-05-26 01:37:00,
2013-05-25 21:42:00,74.0,60.1,30.22,ENE,67,9.0,16.0,62,0.00,,,0.00,Weather View 32 v70,2013-05-26 01:42:00,
2013-05-25 21:51:00,74.0,61.0,30.22,NE,45,8.0,16.0,64,0.00,,,0.00,Weather View 32 v70,2013-05-26 01:51:00,
2013-05-25 21:56:00,74.0,60.6,30.22,ENE,67,6.0,16.0,63,0.00,,,0.00,Weather View 32 v70,2013-05-26 01:56:00,
2013-05-25 22:01:00,74.0,60.6,30.22,ENE,67,7.0,16.0,63,0.00,,,0.00,Weather View 32 v70,2013-05-26 02:01:00,
2013-05-25 22:06:00,74.0,60.6,30.22,NE,45,10.0,16.0,63,0.00,,,0.00,Weather View 32 v70,2013-05-26 02:06:00,
2013-05-25 22:11:00,74.0,60.6,30.22,NE,45,8.0,16.0,63,0.00,,,0.00,Weather View 32 v70,2013-05-26 02:11:00,
2013-05-25 22:16:00,74.0,59.7,30.23,ENE,67,11.0,16.0,61,0.00,,,0.00,Weather View 32 v70,2013-05-26 02:16:00,
2013-05-25 22:21:00,74.0,60.1,30.23,ENE,67,10.0,16.0,62,0.00,,,0.00,Weather View 32 v70,2013-05-26 02:21:00,
2013-05-25 22:26:00,74.0,59.7,30.23,ENE,67,10.0,16.0,61,0.00,,,0.00,Weather View 32 v70,2013-05-26 02:26:00,
2013-05-25 22:31:00,74.0,59.7,30.23,ENE,67,9.0,16.0,61,0.00,,,0.00,Weather View 32 v70,2013-05-26 02:31:00,
2013-05-25 22:36:00,74.0,59.7,30.23,ENE,67,13.0,16.0,61,0.00,,,0.00,Weather View 32 v70,2013-05-26 02:36:00,
2013-05-25 22:41:00,74.0,59.2,30.23,North,360,6.0,16.0,60,0.00,,,0.00,Weather View 32 v70,2013-05-26 02:41:00,
2013-05-25 22:46:00,74.0,59.2,30.23,NE,45,8.0,16.0,60,0.00,,,0.00,Weather View 32 v70,2013-05-26 02:46:00,
2013-05-25 22:51:00,74.0,59.2,30.23,NE,45,10.0,16.0,60,0.00,,,0.00,Weather View 32 v70,2013-05-26 02:51:00,
2013-05-25 22:56:00,74.0,59.2,30.23,ENE,67,12.0,16.0,60,0.00,,,0.00,Weather View 32 v70,2013-05-26 02:56:00,
2013-05-25 23:01:00,74.0,59.7,30.23,ENE,67,9.0,16.0,61,0.00,,,0.00,Weather View 32 v70,2013-05-26 03:01:00,
2013-05-25 23:06:00,74.0,59.7,30.24,NE,45,9.0,16.0,61,0.00,,,0.00,Weather View 32 v70,2013-05-26 03:06:00,
2013-05-25 23:11:00,74.0,59.7,30.24,ENE,67,5.0,16.0,61,0.00,,,0.00,Weather View 32 v70,2013-05-26 03:11:00,
2013-05-25 23:16:00,73.0,59.2,30.24,ENE,67,10.0,16.0,62,0.00,,,0.00,Weather View 32 v70,2013-05-26 03:16:00,
2013-05-25 23:21:00,74.0,60.1,30.24,NE,45,8.0,16.0,62,0.00,,,0.00,Weather View 32 v70,2013-05-26 03:21:00,
2013-05-25 23:26:00,74.0,59.7,30.24,NE,45,6.0,16.0,61,0.00,,,0.00,Weather View 32 v70,2013-05-26 03:26:00,
2013-05-25 23:31:00,74.0,59.7,30.24,East,90,8.0,16.0,61,0.00,,,0.00,Weather View 32 v70,2013-05-26 03:31:00,
2013-05-25 23:36:00,74.0,60.6,30.24,NE,45,7.0,16.0,63,0.00,,,0.00,Weather View 32 v70,2013-05-26 03:36:00,
2013-05-25 23:41:00,73.0,59.6,30.24,ENE,67,9.0,16.0,63,0.00,,,0.00,Weather View 32 v70,2013-05-26 03:41:00,
2013-05-25 23:46:00,73.0,59.2,30.24,NE,45,8.0,16.0,62,0.00,,,0.00,Weather View 32 v70,2013-05-26 03:46:00,
2013-05-25 23:51:00,73.0,58.7,30.24,ENE,67,11.0,16.0,61,0.00,,,0.00,Weather View 32 v70,2013-05-26 03:51:00,
2013-05-25 23:56:00,73.0,58.7,30.24,NE,45,12.0,16.0,61,0.00,,,0.00,Weather View 32 v70,2013-05-26 03:56:00,